This demonstration page uses our WeatherBlox Daily Observations layout. Learn more.

Left ArrowRight Arrow

Hourly Observations for May 16, 2016

Temp ( °F °C ) Dew Point ( °F °C ) Humidity (%) Winds ( mph kmh ) Pressure ( in mb ) Visibility ( mi km ) Precip ( " mm )
12:51 am 00:51 Clear 73 22.8 18 -7.8 12 12 VRB 7 11 29.65 1004 10 16 0.00 0.00
1:51 am 01:51 Clear 68 20 18 -7.8 15 15 WSW 7 11 29.65 1004 10 16 0.00 0.00
2:51 am 02:51 Clear 60 15.6 16 -8.9 18 18 S 6 9 29.68 1005 10 16 0.00 0.00
3:51 am 03:51 Clear 58 14.4 16 -8.9 19 19 SW 5 7 29.69 1005 10 16 0.00 0.00
4:51 am 04:51 Clear 53 11.7 15 -9.4 22 22 ENE 3 6 29.72 1007 10 16 0.00 0.00
5:51 am 05:51 Sunny 58 14.4 16 -8.9 19 19 ESE 8 13 29.75 1007 10 16 0.00 0.00
6:51 am 06:51 Sunny 63 17.2 17 -8.3 17 17 SSE 7 11 29.78 1008 10 16 0.00 0.00
7:51 am 07:51 Sunny 68 20 17 -8.3 14 14 VRB 6 9 29.79 1009 10 16 0.00 0.00
8:51 am 08:51 Sunny 73 22.8 19 -7.2 13 13 VRB 3 6 29.78 1008 10 16 0.00 0.00
9:51 am 09:51 Sunny 76 24.4 17 -8.3 11 11 VRB 3 6 29.77 1008 10 16 0.00 0.00
10:34 am 10:34 Mostly Sunny 78 25.6 14 -10 9 9 ESE 5 7 29.71 1006 10 16 0.00 0.00
10:51 am 10:51 Mostly Sunny 79 26.1 15 -9.4 9 9 Calm 29.75 1007 10 16 0.00 0.00
11:51 am 11:51 Sunny 81 27.2 15 -9.4 8 8 VRB 3 6 29.71 1006 10 16 0.00 0.00
12:51 pm 12:51 Sunny 83 28.3 15 -9.4 8 8 VRB 7 11 29.67 1005 10 16 0.00 0.00
1:51 pm 13:51 Sunny 86 30 15 -9.4 7 7 VRB 5 7 29.64 1004 10 16 0.00 0.00
2:51 pm 14:51 Sunny 87 30.6 16 -8.9 7 7 VRB 6 9 29.62 1003 10 16 0.00 0.00
3:51 pm 15:51 Sunny 90 32.2 15 -9.4 6 6 W 21 33 29.60 1002 10 16 0.00 0.00
4:51 pm 16:51 Sunny 89 31.7 18 -7.8 7 7 NW 15 24 29.61 1003 10 16 0.00 0.00
5:51 pm 17:51 Sunny 87 30.6 20 -6.7 8 8 WNW 17 28 29.60 1002 10 16 0.00 0.00
6:51 pm 18:51 Sunny 83 28.3 21 -6.1 10 10 WNW 21 33 29.62 1003 10 16 0.00 0.00
7:51 pm 19:51 Clear 80 26.7 21 -6.1 11 11 NW 12 19 29.65 1004 10 16 0.00 0.00
8:51 pm 20:51 Clear 75 23.9 23 -5 14 14 WNW 12 19 29.68 1005 10 16 0.00 0.00
9:51 pm 21:51 Clear 73 22.8 23 -5 15 15 NW 10 17 29.69 1006 10 16 0.00 0.00
10:51 pm 22:51 Clear 71 21.7 22 -5.6 16 16 NW 13 20 29.70 1006 10 16 0.00 0.00
11:51 pm 23:51 Clear 71 21.7 21 -6.1 15 15 WNW 14 22 29.70 1006 10 16 0.00 0.00

Powered by AerisWeather